Location: Petrozavodsk
(61.7857°N, 34.3593°E)
Time: 21:37:00
(UTC+03:00)

Terra - Visible Passes

Search period start: 03 August 2020 00:00
Search period end: 13 August 2020 00:00
Orbit: 701 x 703 km, 98.2° (Epoch: 03 August)

Date Brightness Start Highest point End Pass type
(mag) Time Alt. Az. Time Alt. Az. Time Alt. Az.
03 Aug 4.0 00:00:10 10° SW 00:03:25 18° W 00:06:42 10° NW visible
03 Aug 2.9 23:03:21 10° SSW 23:07:49 39° W 23:12:19 10° NNW visible
04 Aug 3.8 23:47:23 10° SW 23:51:02 21° W 23:54:42 10° NW visible
05 Aug 2.6 22:50:55 10° S 22:55:31 47° W 23:00:09 10° NNW visible
06 Aug 4.3 00:32:58 10° W 00:34:29 11° WNW 00:36:01 10° WNW visible
06 Aug 3.6 23:34:42 10° SW 23:38:39 25° W 23:42:38 10° NW visible
07 Aug 2.3 22:38:32 10° S 22:43:13 57° WSW 22:47:57 10° NNW visible
08 Aug 4.2 00:19:37 10° WSW 00:22:03 14° W 00:24:29 10° NW visible
08 Aug 3.3 23:22:06 10° SSW 23:26:18 30° W 23:30:32 10° NNW visible
09 Aug 2.1 22:26:12 10° S 22:30:57 68° WSW 22:35:44 10° NNW visible
10 Aug 4.1 00:06:36 10° WSW 00:09:37 16° W 00:12:39 10° NW visible
10 Aug 3.0 23:09:34 10° SSW 23:13:58 36° W 23:18:23 10° NNW visible
11 Aug 1.9 22:13:55 10° SSE 22:18:42 81° WSW 22:23:31 10° NNW visible
11 Aug 3.9 23:53:45 10° SW 23:57:13 20° W 00:00:42 10° NW visible
12 Aug 2.7 22:57:06 10° S 23:01:39 43° W 23:06:13 10° NNW visible
